Find Starlink 30806

NORAD ID: 58180 Int'l Des: 2023-167 Owner: SPXS Country: US Constellation: starlink operational
LEOCIRCULAR

Current View

Loading 3D Globe...

About Starlink 30806

Starlink 30806 (NORAD 58180) is a starlink constellation satellite (v2 mini) launched Oct 30, 2023 by SPXS of US. It operates in LEO, CIRCULAR orbit with a mass of 730.00 kg.

About Starlink 30806

Description loading...

Upcoming Passes

Passes for default location (London). Set your location on the main map for personalized predictions.

Altitude History

Loading altitude history...

Two-Line Element Set

1 58180U 23167F 26169.60795760 .00050614 00000-0 15544-2 0 9992
2 58180 42.9998 292.2180 0007730 323.4239 36.6086 15.32938373146433
Epoch: Jun 18, 2026 • Age: 16 hours

Current Status

Altitude 470.4 km
Velocity 7.64 km/s
Sub-Earth Point 39.93°N, 13.81°W
Launch Date Oct 30, 2023
Age 2.6 years
Type internet

Technical Details

Classification Payload
Mass 730.00 kg
Dry Mass 700.00 kg
Total Mass 730.00 kg
Length 0.30 m
Diameter 4.10 m
Span 29.00 m
Shape Box + pan
Manufacturer SPXS
Bus Type Starlink V2M
Phase Status In Orbit
Owner/State SPXS/US

Most Searched